Location: ??????
(52.9667°N, 53.9667°E)
Time: 13:09:15
(UTC+00:00)

Daily predictions for brighter satellites

Satellite Brightness Start Highest point End
(mag) Time Altitude Azimuth Time Altitude Azimuth Time Altitude Azimuth
Unknown 3.7 13:39:52 10° W 13:44:02 89° N 13:48:11 10° E
Unknown 3.6 13:44:50 10° W 13:48:59 89° N 13:53:09 10° E
Unknown 3.6 13:46:28 10° W 13:50:37 89° NNW 13:54:47 10° E
Cosmos 1953 2.7 13:47:39 10° SSW 13:51:43 70° WNW 13:55:47 10° N
Cosmos 292 Rocket 3.8 13:47:37 10° S 13:52:17 60° ESE 13:57:00 10° NNE
Unknown 3.6 13:48:07 10° W 13:52:17 88° N 13:56:27 10° E
Unknown 3.7 13:49:44 10° W 13:53:55 88° N 13:58:07 10° E
Unknown 3.6 13:51:26 10° W 13:55:37 88° N 13:59:46 10° E
Cosmos 1470 4.3 13:51:59 10° SW 13:55:45 40° WNW 13:59:31 10° N
Cosmos 2084 Rocket 3.5 13:52:33 10° NW 13:57:02 82° NE 14:01:26 10° SE
FALCON 9 DEB 4.5 13:53:58 10° W 13:57:13 38° SSW 14:00:29 10° SE
Unknown 3.6 13:53:12 10° W 13:57:22 88° N 14:01:30 10° E
CORIOLIS 4.4 13:52:50 10° SSE 13:58:12 78° WSW 14:03:38 10° NNW
Cosmos 1242 Rocket 3.3 13:56:46 10° NNW 14:00:25 60° W 14:04:03 10° S
Unknown 3.6 13:56:29 10° W 14:00:38 88° N 14:04:37 11° E
Unknown 3.6 13:56:32 10° W 14:00:42 88° N 14:04:41 11° E
SJ 16-02 2.6 13:58:21 10° N 14:01:49 22° NE 14:05:15 10° E
Unknown 3.6 13:58:06 10° W 14:02:16 88° N 14:06:12 11° E
SL-27 R/B 4.3 14:01:22 10° NNE 14:03:02 13° NE 14:04:15 11° ENE
SMAP 3.8 13:58:35 10° S 14:03:10 59° WSW 14:07:48 10° NNW
Cosmos 2227 Rocket 4.4 14:00:51 10° NNW 14:03:18 13° N 14:05:46 10° NNE
USA 238 DEB 4.3 13:57:50 10° S 14:03:51 37° ESE 14:10:05 10° NE
USA 238 4.3 13:57:57 10° S 14:03:57 36° ESE 14:10:10 10° NE
COBE Rocket 4.2 13:59:42 10° NNE 14:04:44 50° E 14:09:37 10° S
NOAA 12 4.2 13:59:34 10° SSE 14:04:53 89° ENE 14:10:15 10° NNW
Unknown 3.6 14:01:21 10° W 14:05:31 88° N 14:09:18 12° E
Envisat 3.0 14:01:43 10° SSE 14:06:47 75° ENE 14:11:53 10° NNW
Cosmos 2058 Rocket 3.0 14:02:49 10° S 14:07:09 77° E 14:11:33 10° NNE
Cosmos 2297 Rocket 4.4 14:05:36 10° NNW 14:07:58 12° N 14:10:19 10° NNE
Unknown 3.5 14:04:11 10° W 14:08:05 83° S 14:11:43 12° ESE
Unknown 3.6 14:04:46 10° W 14:08:56 88° N 14:12:35 13° E
Cosmos 2082 Rocket 2.2 14:04:34 10° NNW 14:10:20 81° ENE 14:16:02 10° SE
Unknown 3.6 14:06:25 10° W 14:10:35 88° N 14:14:10 14° E
CSL-04 Debris 4.3 14:05:31 10° SE 14:10:50 55° ENE 14:16:13 10° N
Unknown 3.6 14:08:05 10° W 14:12:15 88° N 14:15:47 14° E
Cosmos 1898 Rocket 4.0 14:07:21 10° NNW 14:12:21 40° NE 14:17:21 10° SE
Cosmos 1300 3.9 14:10:22 10° SE 14:13:20 22° E 14:16:20 10° NE
Unknown 3.6 14:09:47 10° W 14:13:56 88° N 14:17:24 15° E
Cosmos 1459 Rocket 4.5 14:08:59 10° N 14:14:45 37° ENE 14:20:33 10° SE
COSMO-SKYMED 1 2.9 14:12:06 10° NNE 14:16:16 43° E 14:20:25 10° S
Unknown 3.6 14:13:06 10° W 14:17:16 88° N 14:20:35 16° E
Cosmos 1844 Rocket 3.6 14:12:02 10° SW 14:17:31 49° NW 14:22:59 10° NNE
Cosmos 1339 Rocket 4.5 14:11:43 10° S 14:17:41 59° E 14:23:46 10° NNE
Abrixas rocket 3.3 14:16:13 10° SW 14:18:57 30° S 14:20:55 15° ESE
Unknown 3.6 14:14:49 10° W 14:18:59 89° N 14:22:14 16° E
Unknown 3.6 14:16:24 10° W 14:20:33 89° N 14:23:45 17° E
H-2A R/B 3.6 14:19:26 14° E 14:21:48 18° NE 14:25:24 10° N
Unknown 3.6 14:18:00 10° W 14:22:10 89° N 14:25:17 17° E
CZ-4 R/B 4.3 14:19:26 10° SSE 14:23:33 78° ENE 14:27:41 10° NNW
H-2A R/B 4.3 14:20:03 10° SSW 14:23:45 40° W 14:27:30 10° NNW
Unknown 3.6 14:19:44 10° W 14:23:54 89° N 14:26:58 18° E
Unknown 3.6 14:21:14 10° W 14:25:24 88° N 14:28:23 18° E
NOSS 3-2 (A) 3.9 14:20:21 10° S 14:25:43 39° ESE 14:31:44 10° NE
Cosmos 1356 3.9 14:22:25 10° SSW 14:25:50 64° WNW 14:29:17 10° N
Cosmos 2058 3.4 14:22:08 10° N 14:26:08 38° ENE 14:30:04 10° SE
CZ-2D R/B 3.7 14:24:01 10° SE 14:27:37 38° ENE 14:31:15 10° N
Unknown 3.6 14:24:31 10° W 14:28:41 89° N 14:31:32 20° E
Cosmos 1605 Rocket 4.1 14:23:12 10° NNW 14:29:26 83° W 14:35:32 10° S
Unknown 3.6 14:26:12 10° W 14:30:21 89° N 14:33:09 20° E
Cosmos 1076 Rocket 3.6 14:27:03 10° N 14:31:23 57° ENE 14:35:40 10° SSE
Unknown 3.6 14:28:03 10° W 14:32:13 90° S 14:34:56 21° E
In-Cosmos 22 Rocket 4.4 14:27:13 10° N 14:32:25 45° ENE 14:37:43 10° SE
Unknown 3.5 14:28:49 10° W 14:32:53 85° S 14:35:32 21° ESE
Unknown 3.6 14:29:33 10° W 14:33:43 90° NNW 14:36:23 22° E
ATLAS 5 CENTAUR R/B 3.1 14:29:36 10° W 14:33:51 35° NNW 14:38:40 10° NE
Unknown 4.0 14:31:27 10° W 14:35:06 52° SSW 14:37:54 16° SE
Unknown 3.6 14:31:12 10° W 14:35:22 90° WNW 14:37:57 22° E
Okean-O 4.1 14:33:12 10° S 14:37:23 41° W 14:41:37 10° NNW
Unknown 3.6 14:34:33 10° W 14:38:42 89° SSE 14:41:09 24° E
SKYMED 3 4.5 14:35:58 10° NNE 14:40:20 71° ESE 14:44:40 10° S
Unknown 3.6 14:36:10 10° W 14:40:21 89° SSE 14:42:44 25° E
Cosmos 1939 Rocket 3.1 14:36:45 10° SE 14:40:38 48° ENE 14:44:36 10° N
BREEZE-M DEB (TANK) 3.8 14:38:46 10° SW 14:41:48 20° SSE 14:42:32 18° SE
Unknown 3.6 14:37:50 10° W 14:42:00 89° S 14:44:19 25° E
Unknown 3.6 14:39:32 10° W 14:43:42 88° S 14:45:57 26° E
Cosmos 1726 3.4 14:40:23 10° SSW 14:43:53 43° WNW 14:47:24 10° N
Unknown 3.5 14:41:04 10° W 14:45:11 86° S 14:47:21 27° ESE
Cosmos 2173 Rocket 4.0 14:39:26 10° N 14:45:37 57° ENE 14:51:40 10° SSE
Unknown 3.6 14:42:52 10° W 14:47:02 87° S 14:49:09 28° E
Okean 3 Rocket 4.0 14:43:01 10° N 14:47:21 42° ENE 14:50:58 14° SE
Cosmos 2151 3.6 14:43:29 10° N 14:47:27 34° ENE 14:49:14 24° ESE
Cosmos 1727 Rocket 3.9 14:41:34 10° S 14:47:39 68° E 14:53:48 10° NNE
Unknown 3.6 14:43:46 10° W 14:47:55 86° S 14:50:01 28° ESE
Unknown 3.6 14:44:33 10° W 14:48:43 85° SSW 14:50:48 29° ESE
Ariane Rocket 3.1 14:44:29 10° SE 14:49:28 57° ENE 14:54:29 10° N
Unknown 3.6 14:46:24 10° W 14:50:34 85° S 14:52:35 30° ESE
NOSS 3-2 (C) 3.9 14:47:20 10° S 14:52:44 39° ESE 14:56:46 19° ENE
Unknown 3.6 14:49:33 10° W 14:53:43 85° S 14:55:34 32° ESE
Cosmos 2278 Rocket 2.3 14:48:32 10° SW 14:54:14 82° WNW 14:59:58 10° NNE
ASTEX 1 4.0 14:50:13 10° N 14:55:07 61° WNW 15:00:01 10° SSW
Cosmos 1812 Rocket 3.5 14:51:50 10° S 14:56:16 76° E 15:00:45 10° NNE
Unknown 3.6 14:52:51 10° W 14:57:01 84° S 14:58:45 34° ESE
Cosmos 990 Rocket 3.9 14:53:21 10° NNW 14:58:36 76° ENE 15:03:33 11° SSE
Unknown 3.6 14:54:28 10° W 14:58:38 84° S 15:00:18 35° ESE
Resurs 01 Rocket 3.6 15:00:42 14° NE 15:00:42 14° NE 15:02:12 10° NNE
Cosmos 1802 Rocket 4.1 14:53:20 10° N 14:59:44 61° ENE 15:06:03 10° SSE
CSL-04 Rocket 4.0 14:54:41 10° S 15:00:11 69° WSW 15:05:38 10° NNW
Unknown 3.6 14:56:10 10° W 15:00:20 83° SSW 15:01:56 36° ESE
Cosmos 2297 4.0 14:55:01 10° S 15:00:24 45° ESE 15:05:21 12° NE
Lacrosse 5 3.7 14:56:44 10° WNW 15:01:02 29° SW 15:05:20 10° S
Cosmos 1937 Rocket 3.4 14:56:06 10° NNW 15:01:14 65° ENE 15:04:46 20° SE
Unknown 3.6 14:57:46 10° W 15:01:56 83° S 15:03:28 38° ESE
Cosmos 858 Rocket 4.4 14:58:13 10° NNW 15:03:26 70° ENE 15:07:12 19° SE
SKYMED 2 3.8 15:00:06 10° N 15:04:26 71° WNW 15:08:46 10° SSW
EO 1 Delta rocket 4.4 15:00:42 10° S 15:05:22 66° W 15:10:49 10° NNW
ARGOS 3.9 15:04:48 29° E 15:05:55 32° ENE 15:10:41 10° N
HJ-1C 3.4 15:06:18 52° ESE 15:06:43 57° ENE 15:10:02 10° N
YAOGAN 1 3.3 15:02:45 10° S 15:06:59 55° W 15:11:17 10° NNW
Unknown 3.6 15:04:29 10° W 15:08:38 80° SSW 15:09:55 43° ESE
YAOGAN 6 4.2 15:06:00 10° SSW 15:09:22 36° W 15:12:44 10° NNW
Cosmos 1725 Rocket 4.2 15:03:51 10° N 15:09:58 50° ENE 15:14:21 19° SE
Unknown 3.6 15:06:09 10° W 15:10:19 79° SSW 15:11:31 45° ESE
deb Kosmos-1763 4.1 15:06:53 10° NNW 15:10:36 59° ENE 15:11:05 53° E
Unknown 3.6 15:07:48 10° W 15:11:58 78° SSW 15:13:07 46° ESE
SJ-11-01 4.4 15:11:30 34° ESE 15:13:06 50° ENE 15:17:38 10° N
Unknown 3.6 15:09:27 10° W 15:13:36 78° SSW 15:14:41 48° ESE
Unknown 3.6 15:11:07 10° W 15:15:17 77° SSW 15:16:18 49° ESE
CZ-4 R/B 3.1 15:11:36 10° SSW 15:15:30 36° W 15:19:27 10° NNW
ATLAS 3B R/B 3.0 15:09:24 10° S 15:15:35 41° ESE 15:17:52 31° E
Cosmos 2100 Rocket 3.9 15:10:01 10° N 15:16:14 87° W 15:22:23 10° S
Unknown 4.3 15:14:09 10° W 15:17:48 42° SSW 15:18:52 33° SSE
Cosmos 1825 4.1 15:15:02 10° N 15:16:14 17° NNE 15:16:14 17° NNE
Unknown 3.6 15:14:26 10° W 15:18:35 76° SSW 15:19:29 52° SE
Starlink (trailer) 3.6 15:16:05 10° W 15:20:15 75° SSW 15:21:04 54° SE
USA 116 3.6 15:17:12 10° N 15:20:25 67° WNW 15:23:53 10° SSW
Cosmos 372 Rocket 4.3 15:15:56 10° NNW 15:20:51 43° NE 15:21:33 40° ENE
CENTAUR R/B 2.8 15:15:35 10° SSW 15:21:19 45° ESE 15:23:55 32° ENE
Unknown 3.6 15:17:47 10° W 15:21:56 74° SSW 15:22:41 56° SE
NOAA 11 4.4 15:16:52 10° S 15:22:17 73° WSW 15:27:45 10° NNW
ATLAS CENTAUR R/B 2.2 15:18:59 10° NW 15:23:19 38° NNE 15:23:38 37° NE
Unknown 3.6 15:19:30 10° W 15:23:38 73° SSW 15:24:20 57° SE
SJ-6B 3.9 15:25:28 28° NNE 15:25:28 28° NNE 15:27:38 10° N
CZ-2C R/B 3.9 15:26:03 34° ENE 15:26:19 35° ENE 15:31:23 10° N
Cosmos 1763 Rocket 3.7 15:21:44 10° S 15:26:47 46° ESE 15:27:09 45° E
Cosmos 1892 2.5 15:23:30 10° N 15:27:20 80° E 15:27:33 75° SE
Cosmos 44 3.2 15:22:48 10° SSW 15:27:37 62° SE 15:28:21 54° E
Cosmos-2242 2.9 15:23:46 10° S 15:28:04 62° E 15:32:21 10° NNE
Unknown 3.6 15:24:27 10° W 15:28:35 70° SSW 15:29:06 61° SSE
Unknown 3.6 15:26:04 10° W 15:30:12 70° SSW 15:30:39 63° SSE
Cosmos 2016 Rocket 3.9 15:24:38 10° N 15:30:59 81° E 15:37:20 10° SSE
Unknown 3.6 15:27:45 10° W 15:31:53 69° SSW 15:32:15 64° SSE
Cosmos 2298 Rocket 4.0 15:27:22 10° NNW 15:32:39 59° ENE 15:33:36 51° ESE
Unknown 3.6 15:29:21 10° W 15:33:31 68° SSW 15:33:52 64° SSE
Unknown 3.6 15:31:03 10° W 15:35:11 67° SSW 15:35:26 65° S
Unknown 3.7 15:32:49 10° W 15:36:56 65° SSW 15:37:08 64° S
SL-27 R/B 3.1 15:35:18 10° NNW 15:37:51 49° NW 15:37:51 49° NW
Unknown 3.7 15:36:05 10° W 15:40:12 64° SSW 15:40:16 64° SSW
Unknown 3.7 15:36:08 10° W 15:40:15 63° SSW 15:40:20 63° SSW
SL-08 R/B 4.3 15:34:15 10° N 15:40:24 80° E 15:44:27 22° SSE
SJ 16-02 1.6 15:36:28 10° NNW 15:40:50 64° WSW 15:42:23 37° S
Unknown 3.8 15:37:43 10° W 15:41:51 64° SSW 15:41:51 64° SSW
Meteor 2-3 Rocket 4.0 15:37:50 10° N 15:43:22 47° ENE 15:43:22 47° ENE
Unknown 3.8 15:40:58 10° W 15:44:57 62° SSW 15:44:57 62° SSW
SPOT 3 Rocket 3.4 15:44:38 60° ESE 15:45:22 68° ENE 15:50:34 10° NNW
Unknown 3.9 15:44:23 10° W 15:48:14 59° SW 15:48:14 59° SW
Cosmos 1300 4.1 15:45:13 10° SW 15:48:48 38° WNW 15:52:25 10° N
Cosmos 2227 Rocket 4.0 15:46:19 10° NNW 15:49:55 17° NNE 15:50:32 16° NNE
Unknown 4.0 15:46:02 10° W 15:49:49 57° SW 15:49:49 57° SW
Unknown 4.1 15:47:42 10° W 15:51:26 55° SW 15:51:26 55° SW
Unknown 4.1 15:49:24 10° W 15:53:03 54° SW 15:53:03 54° SW
USA 238 DEB 3.8 15:47:38 10° WSW 15:54:24 73° NW 15:58:43 25° NE
Cosmos 2297 Rocket 4.0 15:50:46 10° NNW 15:54:30 18° NNE 15:54:51 17° NNE
USA 238 3.8 15:47:45 10° SW 15:54:31 73° NW 15:58:47 26° NE
MOS 1 4.5 15:52:12 20° S 15:56:12 69° WSW 16:01:52 10° NNW
Unknown 4.3 15:52:43 10° W 15:56:14 50° SW 15:56:14 50° SW
Cosmos 1408 4.4 15:53:57 10° N 15:55:37 25° N 15:55:37 25° N
Unknown 4.3 15:54:26 10° W 15:57:53 49° WSW 15:57:53 49° WSW
Unknown 4.4 15:56:01 10° W 15:59:24 47° WSW 15:59:24 47° WSW
H-2A R/B 2.0 16:00:04 74° ESE 16:00:25 78° ENE 16:05:54 10° NNW
Unknown 4.5 15:57:37 10° W 16:00:56 46° WSW 16:00:56 46° WSW
Timation 2 Rocket 4.2 16:04:12 10° NNW 16:09:43 50° NE 16:09:43 50° NE
NOSS 3-2 (A) 3.8 16:10:16 10° WSW 16:16:15 65° NW 16:19:08 35° NE
Cosmos 1408 Rocket 4.4 16:14:20 10° NNW 16:17:48 47° WNW 16:17:48 47° WNW
Cosmos 1125 Rocket 4.0 16:13:33 10° NNW 16:17:40 51° N 16:17:40 51° N
ATLAS 5 CENTAUR R/B 3.5 16:15:36 10° NW 16:19:50 27° N 16:20:17 26° NNE
ADEOS Rocket 3.3 16:15:38 10° NNE 16:23:22 75° ESE 16:26:12 41° S
Cosmos 972 Rocket 4.4 16:22:48 10° NNW 16:27:13 62° N 16:27:13 62° N
Resurs 01 Rocket 3.6 16:38:17 23° NNW 16:38:17 23° NNW 16:39:58 10° NNW
Cosmos 2278 Rocket 4.2 16:34:36 10° W 16:39:12 25° NW 16:43:49 10° NNE
Cosmos 1238 Rocket 4.0 16:33:48 10° NNW 16:40:24 75° W 16:40:24 75° W
NOSS 3-2 (C) 3.8 16:37:20 10° WSW 16:43:21 65° NW 16:44:15 59° N
ARGOS 3.8 16:46:19 53° W 16:46:19 53° W 16:51:19 10° NNW
ATLAS CENTAUR R/B 3.9 16:58:06 10° NW 16:59:50 22° WNW 16:59:50 22° WNW
CZ-2C R/B 4.2 17:07:08 46° WNW 17:07:08 46° WNW 17:11:36 10° NNW
ATLAS 3B R/B 3.0 16:59:22 10° WSW 17:05:11 60° WNW 17:05:11 60° WNW
CENTAUR R/B 3.1 17:05:31 10° WSW 17:11:09 59° WNW 17:11:09 59° WNW
Cosmos 2227 Rocket 4.2 17:30:07 10° NNW 17:32:20 23° NNW 17:32:20 23° NNW
Cosmos 2297 Rocket 4.2 17:34:32 10° NNW 17:36:39 22° NNW 17:36:39 22° NNW
H-2A R/B 4.3 17:40:42 21° W 17:40:42 21° W 17:44:29 10° NW
Cosmos 2333 Rocket 4.3 22:22:13 22° ENE 22:22:13 22° ENE 22:24:35 10° NE
Cosmos 2219 Rocket 4.3 22:26:56 22° ENE 22:26:56 22° ENE 22:29:14 10° NE
SL-16 R/B 4.3 22:30:18 21° NNE 22:30:18 21° NNE 22:32:13 10° NNE
ADEOS II 4.3 22:24:17 10° NNE 22:26:16 21° NE 22:26:16 21° NE
Cosmos 2237 Rocket 4.3 22:42:25 21° E 22:42:25 21° E 22:46:07 10° NE
USA 234 4.1 22:35:58 10° E 22:40:12 43° E 22:40:12 43° E
CENTAUR R/B 3.9 22:51:34 40° SE 22:51:34 40° SE 22:56:36 10° SE
Cosmos 2322 Rocket 4.1 22:56:39 24° N 22:56:39 24° N 22:59:01 10° NNE
Cosmos 2360 Rocket 3.8 23:02:42 29° NNE 23:02:42 29° NNE 23:05:31 10° NNE
Cosmos 1943 Rocket 4.3 23:01:18 14° N 23:04:30 22° NNE 23:08:52 10° E
CZ-2D R/B 4.2 23:00:38 10° N 23:02:07 19° N 23:02:07 19° N
Cosmos 1980 Rocket 4.3 23:08:24 17° N 23:08:24 17° N 23:10:56 10° NNE
COSMOS 2428 3.7 23:12:14 42° NE 23:12:14 42° NE 23:16:00 10° NE
ARIANE 5 R/B 4.1 23:14:39 10° NNE 23:16:59 28° NNE 23:16:59 28° NNE
ATLAS 2AS CENTAUR R/B 3.2 23:20:17 58° SSE 23:21:07 61° SE 23:28:59 10° NE
Cosmos 2344 4.4 23:26:09 25° NW 23:32:13 70° NE 23:44:31 10° ESE
COSMOS 2455 3.4 23:35:15 49° N 23:35:15 49° N 23:39:58 10° NE
Cosmos 1709 Rocket 4.2 23:37:51 65° N 23:37:51 65° N 23:43:16 10° N
SL-16 R/B 4.3 23:34:53 11° SSE 23:38:47 22° ESE 23:43:04 10° NE
USA 267 4.1 23:42:39 10° ENE 23:48:45 40° SE 23:50:33 34° S
Cosmos 2297 3.9 23:48:07 63° N 23:48:51 70° NE 23:54:35 10° SE
Resurs 1-4 Rocket 4.1 23:45:55 10° N 23:47:39 18° NNW 23:47:39 18° NNW
